owner,sensor,date,latitude,longitude,air_pressure(mBar),qcFlag 
WAVCIS,ioos:station:WAVCIS:CSI06:1,2010-11-01T00:00:00Z,28.8667,-90.4833,1017.0,11111222 
WAVCIS,ioos:station:WAVCIS:CSI06:1,2010-11-01T01:00:00Z,28.8667,-90.4833,1017.31,11111222 
WAVCIS,ioos:station:WAVCIS:CSI06:1,2010-11-01T02:00:00Z,28.8667,-90.4833,1017.83,11111222 
WAVCIS,ioos:station:WAVCIS:CSI06:1,2010-11-01T03:00:00Z,28.8667,-90.4833,1018.26,11111222 
WAVCIS,ioos:station:WAVCIS:CSI06:1,2010-11-01T04:00:00Z,28.8667,-90.4833,1018.49,11111222 
WAVCIS,ioos:station:WAVCIS:CSI06:1,2010-11-01T05:00:00Z,28.8667,-90.4833,1018.28,11111222 
WAVCIS,ioos:station:WAVCIS:CSI06:1,2010-11-01T06:00:00Z,28.8667,-90.4833,1018.17,11111222 
WAVCIS,ioos:station:WAVCIS:CSI06:1,2010-11-01T07:00:00Z,28.8667,-90.4833,1018.08,11111222 
WAVCIS,ioos:station:WAVCIS:CSI06:1,2010-11-01T08:00:00Z,28.8667,-90.4833,1017.65,11111222 
WAVCIS,ioos:station:WAVCIS:CSI06:1,2010-11-01T09:00:00Z,28.8667,-90.4833,1017.47,11111222 
WAVCIS,ioos:station:WAVCIS:CSI06:1,2010-11-01T10:00:00Z,28.8667,-90.4833,1017.55,11111222 
WAVCIS,ioos:station:WAVCIS:CSI06:1,2010-11-01T11:00:00Z,28.8667,-90.4833,1018.27,11111222 
WAVCIS,ioos:station:WAVCIS:CSI06:1,2010-11-01T19:00:00Z,28.8667,-90.4833,1017.89,11111222 
WAVCIS,ioos:station:WAVCIS:CSI06:1,2010-11-01T20:00:00Z,28.8667,-90.4833,1017.69,11111222 
WAVCIS,ioos:station:WAVCIS:CSI06:1,2010-11-01T21:00:00Z,28.8667,-90.4833,1017.67,11111222 
WAVCIS,ioos:station:WAVCIS:CSI06:1,2010-11-01T22:00:00Z,28.8667,-90.4833,1017.32,11111222 
WAVCIS,ioos:station:WAVCIS:CSI06:1,2010-11-01T23:00:00Z,28.8667,-90.4833,1017.46,11111222 
WAVCIS,ioos:station:WAVCIS:CSI06:1,2010-11-02T00:00:00Z,28.8667,-90.4833,1018.12,11111222 
WAVCIS,ioos:station:WAVCIS:CSI06:1,2010-11-02T01:00:00Z,28.8667,-90.4833,1018.71,11111222 
WAVCIS,ioos:station:WAVCIS:CSI06:1,2010-11-02T02:00:00Z,28.8667,-90.4833,1018.75,11111222 
WAVCIS,ioos:station:WAVCIS:CSI06:1,2010-11-02T03:00:00Z,28.8667,-90.4833,1019.4,11111222 
WAVCIS,ioos:station:WAVCIS:CSI06:1,2010-11-02T04:00:00Z,28.8667,-90.4833,1019.23,11111222 
WAVCIS,ioos:station:WAVCIS:CSI06:1,2010-11-02T05:00:00Z,28.8667,-90.4833,1018.1,11111222 
WAVCIS,ioos:station:WAVCIS:CSI06:1,2010-11-02T06:00:00Z,28.8667,-90.4833,1016.65,11111222 
WAVCIS,ioos:station:WAVCIS:CSI06:1,2010-11-02T07:00:00Z,28.8667,-90.4833,1015.67,11111222 
WAVCIS,ioos:station:WAVCIS:CSI06:1,2010-11-02T08:00:00Z,28.8667,-90.4833,1015.18,11111222 
WAVCIS,ioos:station:WAVCIS:CSI06:1,2010-11-02T09:00:00Z,28.8667,-90.4833,1015.23,11111222 
WAVCIS,ioos:station:WAVCIS:CSI06:1,2010-11-02T10:00:00Z,28.8667,-90.4833,1015.45,11111222 
WAVCIS,ioos:station:WAVCIS:CSI06:1,2010-11-02T11:00:00Z,28.8667,-90.4833,1015.09,11111222 
WAVCIS,ioos:station:WAVCIS:CSI06:1,2010-11-02T12:00:00Z,28.8667,-90.4833,1014.66,11111222 
WAVCIS,ioos:station:WAVCIS:CSI06:1,2010-11-02T13:00:00Z,28.8667,-90.4833,1015.14,11111222 
WAVCIS,ioos:station:WAVCIS:CSI06:1,2010-11-02T14:00:00Z,28.8667,-90.4833,1014.9,11111222 
WAVCIS,ioos:station:WAVCIS:CSI06:1,2010-11-02T15:00:00Z,28.8667,-90.4833,1014.23,11111222 
WAVCIS,ioos:station:WAVCIS:CSI06:1,2010-11-02T16:00:00Z,28.8667,-90.4833,1014.24,11111222 
WAVCIS,ioos:station:WAVCIS:CSI06:1,2010-11-02T17:00:00Z,28.8667,-90.4833,1013.76,11111222 
WAVCIS,ioos:station:WAVCIS:CSI06:1,2010-11-02T18:00:00Z,28.8667,-90.4833,1012.71,11111222 
WAVCIS,ioos:station:WAVCIS:CSI06:1,2010-11-02T19:00:00Z,28.8667,-90.4833,1012.49,11111222 
WAVCIS,ioos:station:WAVCIS:CSI06:1,2010-11-02T20:00:00Z,28.8667,-90.4833,1011.63,11111222 
WAVCIS,ioos:station:WAVCIS:CSI06:1,2010-11-02T21:00:00Z,28.8667,-90.4833,1011.5,11111222 
WAVCIS,ioos:station:WAVCIS:CSI06:1,2010-11-02T22:00:00Z,28.8667,-90.4833,1011.53,11111222 
WAVCIS,ioos:station:WAVCIS:CSI06:1,2010-11-02T23:00:00Z,28.8667,-90.4833,1010.63,11111222 
WAVCIS,ioos:station:WAVCIS:CSI06:1,2010-11-03T00:00:00Z,28.8667,-90.4833,1010.82,11111222 
WAVCIS,ioos:station:WAVCIS:CSI06:1,2010-11-03T01:00:00Z,28.8667,-90.4833,1011.62,11111222 
WAVCIS,ioos:station:WAVCIS:CSI06:1,2010-11-03T02:00:00Z,28.8667,-90.4833,1011.33,11111222 
WAVCIS,ioos:station:WAVCIS:CSI06:1,2010-11-03T03:00:00Z,28.8667,-90.4833,1011.77,11111222 
WAVCIS,ioos:station:WAVCIS:CSI06:1,2010-11-03T04:00:00Z,28.8667,-90.4833,1011.86,11111222 
WAVCIS,ioos:station:WAVCIS:CSI06:1,2010-11-03T05:00:00Z,28.8667,-90.4833,1011.17,11111222 
WAVCIS,ioos:station:WAVCIS:CSI06:1,2010-11-03T06:00:00Z,28.8667,-90.4833,1010.55,11111222 
WAVCIS,ioos:station:WAVCIS:CSI06:1,2010-11-03T07:00:00Z,28.8667,-90.4833,1010.01,11111222 
WAVCIS,ioos:station:WAVCIS:CSI06:1,2010-11-03T08:00:00Z,28.8667,-90.4833,1009.44,11111222 
WAVCIS,ioos:station:WAVCIS:CSI06:1,2010-11-03T09:00:00Z,28.8667,-90.4833,1009.28,11111222 
WAVCIS,ioos:station:WAVCIS:CSI06:1,2010-11-03T10:00:00Z,28.8667,-90.4833,1009.2,11111222 
WAVCIS,ioos:station:WAVCIS:CSI06:1,2010-11-03T11:00:00Z,28.8667,-90.4833,1009.15,11111222 
WAVCIS,ioos:station:WAVCIS:CSI06:1,2010-11-03T12:00:00Z,28.8667,-90.4833,1009.67,11111222 
WAVCIS,ioos:station:WAVCIS:CSI06:1,2010-11-03T13:00:00Z,28.8667,-90.4833,1009.51,11111222 
WAVCIS,ioos:station:WAVCIS:CSI06:1,2010-11-03T14:00:00Z,28.8667,-90.4833,1010.31,11111222 
WAVCIS,ioos:station:WAVCIS:CSI06:1,2010-11-03T15:00:00Z,28.8667,-90.4833,1010.63,11111222 
WAVCIS,ioos:station:WAVCIS:CSI06:1,2010-11-03T16:00:00Z,28.8667,-90.4833,1010.39,11111222 
WAVCIS,ioos:station:WAVCIS:CSI06:1,2010-11-03T17:00:00Z,28.8667,-90.4833,1010.18,11111222 
WAVCIS,ioos:station:WAVCIS:CSI06:1,2010-11-03T18:00:00Z,28.8667,-90.4833,1009.44,11111222 
WAVCIS,ioos:station:WAVCIS:CSI06:1,2010-11-03T19:00:00Z,28.8667,-90.4833,1008.71,11111222 
WAVCIS,ioos:station:WAVCIS:CSI06:1,2010-11-03T20:00:00Z,28.8667,-90.4833,1008.12,11111222 
WAVCIS,ioos:station:WAVCIS:CSI06:1,2010-11-03T21:00:00Z,28.8667,-90.4833,1007.45,11111222 
WAVCIS,ioos:station:WAVCIS:CSI06:1,2010-11-03T22:00:00Z,28.8667,-90.4833,1007.33,11111222 
WAVCIS,ioos:station:WAVCIS:CSI06:1,2010-11-03T23:00:00Z,28.8667,-90.4833,1007.44,11111222 
WAVCIS,ioos:station:WAVCIS:CSI06:1,2010-11-04T00:00:00Z,28.8667,-90.4833,1007.63,11111222 
WAVCIS,ioos:station:WAVCIS:CSI06:1,2010-11-04T01:00:00Z,28.8667,-90.4833,1007.84,11111222 
WAVCIS,ioos:station:WAVCIS:CSI06:1,2010-11-04T02:00:00Z,28.8667,-90.4833,1008.03,11111222 
WAVCIS,ioos:station:WAVCIS:CSI06:1,2010-11-04T03:00:00Z,28.8667,-90.4833,1008.16,11111222 
WAVCIS,ioos:station:WAVCIS:CSI06:1,2010-11-04T04:00:00Z,28.8667,-90.4833,1007.8,11111222 
WAVCIS,ioos:station:WAVCIS:CSI06:1,2010-11-04T05:00:00Z,28.8667,-90.4833,1007.75,11111222 
WAVCIS,ioos:station:WAVCIS:CSI06:1,2010-11-04T06:00:00Z,28.8667,-90.4833,1007.44,11111222 
WAVCIS,ioos:station:WAVCIS:CSI06:1,2010-11-04T07:00:00Z,28.8667,-90.4833,1006.93,11111222 
WAVCIS,ioos:station:WAVCIS:CSI06:1,2010-11-04T08:00:00Z,28.8667,-90.4833,1006.111,11111222 
WAVCIS,ioos:station:WAVCIS:CSI06:1,2010-11-04T09:00:00Z,28.8667,-90.4833,1006.272,11111222 
WAVCIS,ioos:station:WAVCIS:CSI06:1,2010-11-04T10:00:00Z,28.8667,-90.4833,1006.358,11111222 
WAVCIS,ioos:station:WAVCIS:CSI06:1,2010-11-04T11:00:00Z,28.8667,-90.4833,1006.646,11111222 
WAVCIS,ioos:station:WAVCIS:CSI06:1,2010-11-04T12:00:00Z,28.8667,-90.4833,1007.051,11111222 
WAVCIS,ioos:station:WAVCIS:CSI06:1,2010-11-04T13:00:00Z,28.8667,-90.4833,1008.41,11111222 
WAVCIS,ioos:station:WAVCIS:CSI06:1,2010-11-04T14:00:00Z,28.8667,-90.4833,1009.15,11111222 
WAVCIS,ioos:station:WAVCIS:CSI06:1,2010-11-04T15:00:00Z,28.8667,-90.4833,1010.54,11111222 
WAVCIS,ioos:station:WAVCIS:CSI06:1,2010-11-04T16:00:00Z,28.8667,-90.4833,1010.48,11111222 
WAVCIS,ioos:station:WAVCIS:CSI06:1,2010-11-04T17:00:00Z,28.8667,-90.4833,1010.49,11111222 
WAVCIS,ioos:station:WAVCIS:CSI06:1,2010-11-04T18:00:00Z,28.8667,-90.4833,1010.39,11111222 
WAVCIS,ioos:station:WAVCIS:CSI06:1,2010-11-04T19:00:00Z,28.8667,-90.4833,1009.8,11111222 
WAVCIS,ioos:station:WAVCIS:CSI06:1,2010-11-04T20:00:00Z,28.8667,-90.4833,1010.12,11111222 
WAVCIS,ioos:station:WAVCIS:CSI06:1,2010-11-04T21:00:00Z,28.8667,-90.4833,1009.99,11111222 
WAVCIS,ioos:station:WAVCIS:CSI06:1,2010-11-04T22:00:00Z,28.8667,-90.4833,1010.61,11111222 
WAVCIS,ioos:station:WAVCIS:CSI06:1,2010-11-04T23:00:00Z,28.8667,-90.4833,1011.04,11111222 
WAVCIS,ioos:station:WAVCIS:CSI06:1,2010-11-05T00:00:00Z,28.8667,-90.4833,1012.54,11111222 
WAVCIS,ioos:station:WAVCIS:CSI06:1,2010-11-05T01:00:00Z,28.8667,-90.4833,1013.83,11111222 
WAVCIS,ioos:station:WAVCIS:CSI06:1,2010-11-05T02:00:00Z,28.8667,-90.4833,1014.63,11111222 
WAVCIS,ioos:station:WAVCIS:CSI06:1,2010-11-05T03:00:00Z,28.8667,-90.4833,1015.42,11111222 
WAVCIS,ioos:station:WAVCIS:CSI06:1,2010-11-05T04:00:00Z,28.8667,-90.4833,1016.25,11111222 
WAVCIS,ioos:station:WAVCIS:CSI06:1,2010-11-05T05:00:00Z,28.8667,-90.4833,1016.63,11111222 
WAVCIS,ioos:station:WAVCIS:CSI06:1,2010-11-05T06:00:00Z,28.8667,-90.4833,1016.5,11111222 
WAVCIS,ioos:station:WAVCIS:CSI06:1,2010-11-05T07:00:00Z,28.8667,-90.4833,1016.45,11111222 
WAVCIS,ioos:station:WAVCIS:CSI06:1,2010-11-05T08:00:00Z,28.8667,-90.4833,1016.22,11111222 
WAVCIS,ioos:station:WAVCIS:CSI06:1,2010-11-05T09:00:00Z,28.8667,-90.4833,1016.27,11111222 
WAVCIS,ioos:station:WAVCIS:CSI06:1,2010-11-05T10:00:00Z,28.8667,-90.4833,1016.77,11111222 
WAVCIS,ioos:station:WAVCIS:CSI06:1,2010-11-05T11:00:00Z,28.8667,-90.4833,1017.11,11111222 
WAVCIS,ioos:station:WAVCIS:CSI06:1,2010-11-05T12:00:00Z,28.8667,-90.4833,1017.35,11111222 
WAVCIS,ioos:station:WAVCIS:CSI06:1,2010-11-05T13:00:00Z,28.8667,-90.4833,1018.39,11111222 
WAVCIS,ioos:station:WAVCIS:CSI06:1,2010-11-05T14:00:00Z,28.8667,-90.4833,1019.36,11111222 
WAVCIS,ioos:station:WAVCIS:CSI06:1,2010-11-05T15:00:00Z,28.8667,-90.4833,1020.0,11111222 
WAVCIS,ioos:station:WAVCIS:CSI06:1,2010-11-05T16:00:00Z,28.8667,-90.4833,1020.32,11111222 
WAVCIS,ioos:station:WAVCIS:CSI06:1,2010-11-05T17:00:00Z,28.8667,-90.4833,1020.12,11111222 
WAVCIS,ioos:station:WAVCIS:CSI06:1,2010-11-05T18:00:00Z,28.8667,-90.4833,1019.54,11111222 
WAVCIS,ioos:station:WAVCIS:CSI06:1,2010-11-05T19:00:00Z,28.8667,-90.4833,1018.87,11111222 
WAVCIS,ioos:station:WAVCIS:CSI06:1,2010-11-05T20:00:00Z,28.8667,-90.4833,1018.57,11111222 
WAVCIS,ioos:station:WAVCIS:CSI06:1,2010-11-05T21:00:00Z,28.8667,-90.4833,1018.52,11111222 
WAVCIS,ioos:station:WAVCIS:CSI06:1,2010-11-05T22:00:00Z,28.8667,-90.4833,1018.86,11111222 
WAVCIS,ioos:station:WAVCIS:CSI06:1,2010-11-05T23:00:00Z,28.8667,-90.4833,1019.38,11111222 
WAVCIS,ioos:station:WAVCIS:CSI06:1,2010-11-06T00:00:00Z,28.8667,-90.4833,1020.09,11111222 
WAVCIS,ioos:station:WAVCIS:CSI06:1,2010-11-06T01:00:00Z,28.8667,-90.4833,1021.17,11111222 
WAVCIS,ioos:station:WAVCIS:CSI06:1,2010-11-06T02:00:00Z,28.8667,-90.4833,1022.09,11111222 
WAVCIS,ioos:station:WAVCIS:CSI06:1,2010-11-06T03:00:00Z,28.8667,-90.4833,1022.97,11111222 
WAVCIS,ioos:station:WAVCIS:CSI06:1,2010-11-06T04:00:00Z,28.8667,-90.4833,1023.58,11111222 
WAVCIS,ioos:station:WAVCIS:CSI06:1,2010-11-06T05:00:00Z,28.8667,-90.4833,1024.05,11111222 
WAVCIS,ioos:station:WAVCIS:CSI06:1,2010-11-06T06:00:00Z,28.8667,-90.4833,1024.14,11111222 
WAVCIS,ioos:station:WAVCIS:CSI06:1,2010-11-06T07:00:00Z,28.8667,-90.4833,1024.33,11111222 
WAVCIS,ioos:station:WAVCIS:CSI06:1,2010-11-06T08:00:00Z,28.8667,-90.4833,1024.33,11111222 
WAVCIS,ioos:station:WAVCIS:CSI06:1,2010-11-06T09:00:00Z,28.8667,-90.4833,1024.73,11111222 
WAVCIS,ioos:station:WAVCIS:CSI06:1,2010-11-06T10:00:00Z,28.8667,-90.4833,1025.3,11111222 
WAVCIS,ioos:station:WAVCIS:CSI06:1,2010-11-06T11:00:00Z,28.8667,-90.4833,1025.62,11111222 
WAVCIS,ioos:station:WAVCIS:CSI06:1,2010-11-06T12:00:00Z,28.8667,-90.4833,1026.36,11111222 
WAVCIS,ioos:station:WAVCIS:CSI06:1,2010-11-06T13:00:00Z,28.8667,-90.4833,1027.14,11111222 
WAVCIS,ioos:station:WAVCIS:CSI06:1,2010-11-06T14:00:00Z,28.8667,-90.4833,1027.97,11111222 
WAVCIS,ioos:station:WAVCIS:CSI06:1,2010-11-06T15:00:00Z,28.8667,-90.4833,1028.31,11111222 
WAVCIS,ioos:station:WAVCIS:CSI06:1,2010-11-06T16:00:00Z,28.8667,-90.4833,1028.6,11111222 
WAVCIS,ioos:station:WAVCIS:CSI06:1,2010-11-06T17:00:00Z,28.8667,-90.4833,1028.43,11111222 
WAVCIS,ioos:station:WAVCIS:CSI06:1,2010-11-06T18:00:00Z,28.8667,-90.4833,1028.0,11111222 
WAVCIS,ioos:station:WAVCIS:CSI06:1,2010-11-06T19:00:00Z,28.8667,-90.4833,1027.32,11111222 
WAVCIS,ioos:station:WAVCIS:CSI06:1,2010-11-06T20:00:00Z,28.8667,-90.4833,1027.0,11111222 
WAVCIS,ioos:station:WAVCIS:CSI06:1,2010-11-06T21:00:00Z,28.8667,-90.4833,1026.98,11111222 
WAVCIS,ioos:station:WAVCIS:CSI06:1,2010-11-06T22:00:00Z,28.8667,-90.4833,1026.8,11111222 
WAVCIS,ioos:station:WAVCIS:CSI06:1,2010-11-06T23:00:00Z,28.8667,-90.4833,1027.04,11111222 
WAVCIS,ioos:station:WAVCIS:CSI06:1,2010-11-07T00:00:00Z,28.8667,-90.4833,1027.3,11111222 
WAVCIS,ioos:station:WAVCIS:CSI06:1,2010-11-07T01:00:00Z,28.8667,-90.4833,1027.63,11111222 
WAVCIS,ioos:station:WAVCIS:CSI06:1,2010-11-07T02:00:00Z,28.8667,-90.4833,1027.89,11111222 
WAVCIS,ioos:station:WAVCIS:CSI06:1,2010-11-07T03:00:00Z,28.8667,-90.4833,1028.49,11111222 
WAVCIS,ioos:station:WAVCIS:CSI06:1,2010-11-07T04:00:00Z,28.8667,-90.4833,1028.88,11111222 
WAVCIS,ioos:station:WAVCIS:CSI06:1,2010-11-07T05:00:00Z,28.8667,-90.4833,1028.68,11111222 
WAVCIS,ioos:station:WAVCIS:CSI06:1,2010-11-07T06:00:00Z,28.8667,-90.4833,1028.61,11111222 
WAVCIS,ioos:station:WAVCIS:CSI06:1,2010-11-07T07:00:00Z,28.8667,-90.4833,1028.62,11111222 
WAVCIS,ioos:station:WAVCIS:CSI06:1,2010-11-07T08:00:00Z,28.8667,-90.4833,1028.28,11111222 
WAVCIS,ioos:station:WAVCIS:CSI06:1,2010-11-07T09:00:00Z,28.8667,-90.4833,1028.07,11111222 
WAVCIS,ioos:station:WAVCIS:CSI06:1,2010-11-07T10:00:00Z,28.8667,-90.4833,1027.92,11111222 
WAVCIS,ioos:station:WAVCIS:CSI06:1,2010-11-07T11:00:00Z,28.8667,-90.4833,1028.01,11111222 
WAVCIS,ioos:station:WAVCIS:CSI06:1,2010-11-07T12:00:00Z,28.8667,-90.4833,1028.34,11111222 
WAVCIS,ioos:station:WAVCIS:CSI06:1,2010-11-07T13:00:00Z,28.8667,-90.4833,1028.88,11111222 
WAVCIS,ioos:station:WAVCIS:CSI06:1,2010-11-07T14:00:00Z,28.8667,-90.4833,1029.23,11111222 
WAVCIS,ioos:station:WAVCIS:CSI06:1,2010-11-07T15:00:00Z,28.8667,-90.4833,1029.26,11111222 
WAVCIS,ioos:station:WAVCIS:CSI06:1,2010-11-07T16:00:00Z,28.8667,-90.4833,1029.5,11111222 
WAVCIS,ioos:station:WAVCIS:CSI06:1,2010-11-07T17:00:00Z,28.8667,-90.4833,1029.03,11111222 
WAVCIS,ioos:station:WAVCIS:CSI06:1,2010-11-07T18:00:00Z,28.8667,-90.4833,1027.98,11111222 
WAVCIS,ioos:station:WAVCIS:CSI06:1,2010-11-07T19:00:00Z,28.8667,-90.4833,1027.05,11111222 
WAVCIS,ioos:station:WAVCIS:CSI06:1,2010-11-07T20:00:00Z,28.8667,-90.4833,1026.5,11111222 
WAVCIS,ioos:station:WAVCIS:CSI06:1,2010-11-07T21:00:00Z,28.8667,-90.4833,1025.88,11111222 
WAVCIS,ioos:station:WAVCIS:CSI06:1,2010-11-07T22:00:00Z,28.8667,-90.4833,1025.81,11111222 
WAVCIS,ioos:station:WAVCIS:CSI06:1,2010-11-07T23:00:00Z,28.8667,-90.4833,1025.73,11111222 
WAVCIS,ioos:station:WAVCIS:CSI06:1,2010-11-08T00:00:00Z,28.8667,-90.4833,1025.78,11111222 
WAVCIS,ioos:station:WAVCIS:CSI06:1,2010-11-08T01:00:00Z,28.8667,-90.4833,1025.84,11111222 
WAVCIS,ioos:station:WAVCIS:CSI06:1,2010-11-08T02:00:00Z,28.8667,-90.4833,1025.81,11111222 
WAVCIS,ioos:station:WAVCIS:CSI06:1,2010-11-08T03:00:00Z,28.8667,-90.4833,1025.61,11111222 
WAVCIS,ioos:station:WAVCIS:CSI06:1,2010-11-08T04:00:00Z,28.8667,-90.4833,1025.22,11111222 
WAVCIS,ioos:station:WAVCIS:CSI06:1,2010-11-08T05:00:00Z,28.8667,-90.4833,1024.74,11111222 
WAVCIS,ioos:station:WAVCIS:CSI06:1,2010-11-08T06:00:00Z,28.8667,-90.4833,1024.06,11111222 
WAVCIS,ioos:station:WAVCIS:CSI06:1,2010-11-08T07:00:00Z,28.8667,-90.4833,1023.42,11111222 
WAVCIS,ioos:station:WAVCIS:CSI06:1,2010-11-08T08:00:00Z,28.8667,-90.4833,1022.92,11111222 
WAVCIS,ioos:station:WAVCIS:CSI06:1,2010-11-08T09:00:00Z,28.8667,-90.4833,1022.6,11111222 
WAVCIS,ioos:station:WAVCIS:CSI06:1,2010-11-08T10:00:00Z,28.8667,-90.4833,1022.54,11111222 
WAVCIS,ioos:station:WAVCIS:CSI06:1,2010-11-08T11:00:00Z,28.8667,-90.4833,1022.33,11111222 
WAVCIS,ioos:station:WAVCIS:CSI06:1,2010-11-08T12:00:00Z,28.8667,-90.4833,1022.4,11111222 
WAVCIS,ioos:station:WAVCIS:CSI06:1,2010-11-08T13:00:00Z,28.8667,-90.4833,1022.58,11111222 
WAVCIS,ioos:station:WAVCIS:CSI06:1,2010-11-08T14:00:00Z,28.8667,-90.4833,1022.93,11111222 
WAVCIS,ioos:station:WAVCIS:CSI06:1,2010-11-08T15:00:00Z,28.8667,-90.4833,1023.16,11111222 
WAVCIS,ioos:station:WAVCIS:CSI06:1,2010-11-08T16:00:00Z,28.8667,-90.4833,1023.21,11111222 
WAVCIS,ioos:station:WAVCIS:CSI06:1,2010-11-08T17:00:00Z,28.8667,-90.4833,1022.67,11111222 
WAVCIS,ioos:station:WAVCIS:CSI06:1,2010-11-08T18:00:00Z,28.8667,-90.4833,1021.85,11111222 
WAVCIS,ioos:station:WAVCIS:CSI06:1,2010-11-08T19:00:00Z,28.8667,-90.4833,1020.83,11111222 
WAVCIS,ioos:station:WAVCIS:CSI06:1,2010-11-08T20:00:00Z,28.8667,-90.4833,1020.05,11111222 
WAVCIS,ioos:station:WAVCIS:CSI06:1,2010-11-08T21:00:00Z,28.8667,-90.4833,1019.45,11111222 
WAVCIS,ioos:station:WAVCIS:CSI06:1,2010-11-08T22:00:00Z,28.8667,-90.4833,1019.28,11111222 
WAVCIS,ioos:station:WAVCIS:CSI06:1,2010-11-08T23:00:00Z,28.8667,-90.4833,1019.22,11111222 
WAVCIS,ioos:station:WAVCIS:CSI06:1,2010-11-09T00:00:00Z,28.8667,-90.4833,1019.03,11111222 
WAVCIS,ioos:station:WAVCIS:CSI06:1,2010-11-09T01:00:00Z,28.8667,-90.4833,1019.34,11111222 
WAVCIS,ioos:station:WAVCIS:CSI06:1,2010-11-09T02:00:00Z,28.8667,-90.4833,1019.28,11111222 
WAVCIS,ioos:station:WAVCIS:CSI06:1,2010-11-09T03:00:00Z,28.8667,-90.4833,1019.16,11111222 
WAVCIS,ioos:station:WAVCIS:CSI06:1,2010-11-09T04:00:00Z,28.8667,-90.4833,1018.66,11111222 
WAVCIS,ioos:station:WAVCIS:CSI06:1,2010-11-09T05:00:00Z,28.8667,-90.4833,1018.56,11111222 
WAVCIS,ioos:station:WAVCIS:CSI06:1,2010-11-09T06:00:00Z,28.8667,-90.4833,1018.23,11111222 
WAVCIS,ioos:station:WAVCIS:CSI06:1,2010-11-09T07:00:00Z,28.8667,-90.4833,1017.82,11111222 
WAVCIS,ioos:station:WAVCIS:CSI06:1,2010-11-09T08:00:00Z,28.8667,-90.4833,1017.51,11111222 
WAVCIS,ioos:station:WAVCIS:CSI06:1,2010-11-09T09:00:00Z,28.8667,-90.4833,1017.25,11111222 
WAVCIS,ioos:station:WAVCIS:CSI06:1,2010-11-09T10:00:00Z,28.8667,-90.4833,1017.26,11111222 
WAVCIS,ioos:station:WAVCIS:CSI06:1,2010-11-09T11:00:00Z,28.8667,-90.4833,1017.35,11111222 
WAVCIS,ioos:station:WAVCIS:CSI06:1,2010-11-09T12:00:00Z,28.8667,-90.4833,1017.45,11111222 
WAVCIS,ioos:station:WAVCIS:CSI06:1,2010-11-09T13:00:00Z,28.8667,-90.4833,1017.67,11111222 
WAVCIS,ioos:station:WAVCIS:CSI06:1,2010-11-09T14:00:00Z,28.8667,-90.4833,1018.28,11111222 
WAVCIS,ioos:station:WAVCIS:CSI06:1,2010-11-09T15:00:00Z,28.8667,-90.4833,1018.87,11111222 
WAVCIS,ioos:station:WAVCIS:CSI06:1,2010-11-09T16:00:00Z,28.8667,-90.4833,1018.91,11111222 
WAVCIS,ioos:station:WAVCIS:CSI06:1,2010-11-09T17:00:00Z,28.8667,-90.4833,1018.25,11111222 
WAVCIS,ioos:station:WAVCIS:CSI06:1,2010-11-09T18:00:00Z,28.8667,-90.4833,1017.73,11111222 
WAVCIS,ioos:station:WAVCIS:CSI06:1,2010-11-09T19:00:00Z,28.8667,-90.4833,1017.04,11111222 
WAVCIS,ioos:station:WAVCIS:CSI06:1,2010-11-09T20:00:00Z,28.8667,-90.4833,1016.49,11111222 
WAVCIS,ioos:station:WAVCIS:CSI06:1,2010-11-09T21:00:00Z,28.8667,-90.4833,1016.26,11111222 
WAVCIS,ioos:station:WAVCIS:CSI06:1,2010-11-09T22:00:00Z,28.8667,-90.4833,1015.83,11111222 
WAVCIS,ioos:station:WAVCIS:CSI06:1,2010-11-09T23:00:00Z,28.8667,-90.4833,1015.75,11111222 
WAVCIS,ioos:station:WAVCIS:CSI06:1,2010-11-10T00:00:00Z,28.8667,-90.4833,1015.91,11111222 
WAVCIS,ioos:station:WAVCIS:CSI06:1,2010-11-10T01:00:00Z,28.8667,-90.4833,1016.13,11111222 
WAVCIS,ioos:station:WAVCIS:CSI06:1,2010-11-10T02:00:00Z,28.8667,-90.4833,1016.47,11111222 
WAVCIS,ioos:station:WAVCIS:CSI06:1,2010-11-10T03:00:00Z,28.8667,-90.4833,1016.52,11111222 
WAVCIS,ioos:station:WAVCIS:CSI06:1,2010-11-10T04:00:00Z,28.8667,-90.4833,1016.6,11111222 
WAVCIS,ioos:station:WAVCIS:CSI06:1,2010-11-10T05:00:00Z,28.8667,-90.4833,1016.58,11111222 
WAVCIS,ioos:station:WAVCIS:CSI06:1,2010-11-10T06:00:00Z,28.8667,-90.4833,1016.31,11111222 
WAVCIS,ioos:station:WAVCIS:CSI06:1,2010-11-10T07:00:00Z,28.8667,-90.4833,1016.02,11111222 
WAVCIS,ioos:station:WAVCIS:CSI06:1,2010-11-10T08:00:00Z,28.8667,-90.4833,1016.07,11111222 
WAVCIS,ioos:station:WAVCIS:CSI06:1,2010-11-10T09:00:00Z,28.8667,-90.4833,1016.07,11111222 
WAVCIS,ioos:station:WAVCIS:CSI06:1,2010-11-10T10:00:00Z,28.8667,-90.4833,1016.15,11111222 
WAVCIS,ioos:station:WAVCIS:CSI06:1,2010-11-10T11:00:00Z,28.8667,-90.4833,1016.55,11111222 
WAVCIS,ioos:station:WAVCIS:CSI06:1,2010-11-10T12:00:00Z,28.8667,-90.4833,1016.9,11111222 
WAVCIS,ioos:station:WAVCIS:CSI06:1,2010-11-10T13:00:00Z,28.8667,-90.4833,1017.56,11111222 
WAVCIS,ioos:station:WAVCIS:CSI06:1,2010-11-10T14:00:00Z,28.8667,-90.4833,1018.29,11111222 
WAVCIS,ioos:station:WAVCIS:CSI06:1,2010-11-10T15:00:00Z,28.8667,-90.4833,1018.58,11111222 
WAVCIS,ioos:station:WAVCIS:CSI06:1,2010-11-10T16:00:00Z,28.8667,-90.4833,1018.85,11111222 
WAVCIS,ioos:station:WAVCIS:CSI06:1,2010-11-10T17:00:00Z,28.8667,-90.4833,1018.47,11111222 
WAVCIS,ioos:station:WAVCIS:CSI06:1,2010-11-10T18:00:00Z,28.8667,-90.4833,1018.18,11111222 
WAVCIS,ioos:station:WAVCIS:CSI06:1,2010-11-10T19:00:00Z,28.8667,-90.4833,1017.75,11111222 
WAVCIS,ioos:station:WAVCIS:CSI06:1,2010-11-10T20:00:00Z,28.8667,-90.4833,1017.65,11111222 
WAVCIS,ioos:station:WAVCIS:CSI06:1,2010-11-10T21:00:00Z,28.8667,-90.4833,1017.53,11111222 
WAVCIS,ioos:station:WAVCIS:CSI06:1,2010-11-10T22:00:00Z,28.8667,-90.4833,1017.67,11111222 
WAVCIS,ioos:station:WAVCIS:CSI06:1,2010-11-10T23:00:00Z,28.8667,-90.4833,1017.76,11111222 
WAVCIS,ioos:station:WAVCIS:CSI06:1,2010-11-11T00:00:00Z,28.8667,-90.4833,1018.44,11111222 
WAVCIS,ioos:station:WAVCIS:CSI06:1,2010-11-11T01:00:00Z,28.8667,-90.4833,1019.02,11111222 
WAVCIS,ioos:station:WAVCIS:CSI06:1,2010-11-11T02:00:00Z,28.8667,-90.4833,1019.42,11111222 
WAVCIS,ioos:station:WAVCIS:CSI06:1,2010-11-11T03:00:00Z,28.8667,-90.4833,1019.81,11111222 
WAVCIS,ioos:station:WAVCIS:CSI06:1,2010-11-11T04:00:00Z,28.8667,-90.4833,1020.01,11111222 
WAVCIS,ioos:station:WAVCIS:CSI06:1,2010-11-11T05:00:00Z,28.8667,-90.4833,1020.13,11111222 
WAVCIS,ioos:station:WAVCIS:CSI06:1,2010-11-11T06:00:00Z,28.8667,-90.4833,1020.16,11111222 
WAVCIS,ioos:station:WAVCIS:CSI06:1,2010-11-11T07:00:00Z,28.8667,-90.4833,1019.99,11111222 
WAVCIS,ioos:station:WAVCIS:CSI06:1,2010-11-11T08:00:00Z,28.8667,-90.4833,1019.8,11111222 
WAVCIS,ioos:station:WAVCIS:CSI06:1,2010-11-11T09:00:00Z,28.8667,-90.4833,1020.05,11111222 
WAVCIS,ioos:station:WAVCIS:CSI06:1,2010-11-11T10:00:00Z,28.8667,-90.4833,1020.32,11111222 
WAVCIS,ioos:station:WAVCIS:CSI06:1,2010-11-11T11:00:00Z,28.8667,-90.4833,1020.65,11111222 
WAVCIS,ioos:station:WAVCIS:CSI06:1,2010-11-11T12:00:00Z,28.8667,-90.4833,1021.15,11111222 
WAVCIS,ioos:station:WAVCIS:CSI06:1,2010-11-11T13:00:00Z,28.8667,-90.4833,1021.86,11111222 
WAVCIS,ioos:station:WAVCIS:CSI06:1,2010-11-11T14:00:00Z,28.8667,-90.4833,1022.47,11111222 
WAVCIS,ioos:station:WAVCIS:CSI06:1,2010-11-11T15:00:00Z,28.8667,-90.4833,1023.0,11111222 
WAVCIS,ioos:station:WAVCIS:CSI06:1,2010-11-11T16:00:00Z,28.8667,-90.4833,1023.49,11111222 
WAVCIS,ioos:station:WAVCIS:CSI06:1,2010-11-11T17:00:00Z,28.8667,-90.4833,1023.44,11111222 
WAVCIS,ioos:station:WAVCIS:CSI06:1,2010-11-11T18:00:00Z,28.8667,-90.4833,1022.78,11111222 
WAVCIS,ioos:station:WAVCIS:CSI06:1,2010-11-11T19:00:00Z,28.8667,-90.4833,1022.41,11111222 
WAVCIS,ioos:station:WAVCIS:CSI06:1,2010-11-11T20:00:00Z,28.8667,-90.4833,1022.01,11111222 
WAVCIS,ioos:station:WAVCIS:CSI06:1,2010-11-11T21:00:00Z,28.8667,-90.4833,1022.21,11111222 
WAVCIS,ioos:station:WAVCIS:CSI06:1,2010-11-11T22:00:00Z,28.8667,-90.4833,1022.29,11111222 
WAVCIS,ioos:station:WAVCIS:CSI06:1,2010-11-11T23:00:00Z,28.8667,-90.4833,1022.43,11111222 
WAVCIS,ioos:station:WAVCIS:CSI06:1,2010-11-12T00:00:00Z,28.8667,-90.4833,1022.71,11111222 
WAVCIS,ioos:station:WAVCIS:CSI06:1,2010-11-12T01:00:00Z,28.8667,-90.4833,1023.32,11111222 
WAVCIS,ioos:station:WAVCIS:CSI06:1,2010-11-12T02:00:00Z,28.8667,-90.4833,1023.62,11111222 
WAVCIS,ioos:station:WAVCIS:CSI06:1,2010-11-12T03:00:00Z,28.8667,-90.4833,1023.68,11111222 
WAVCIS,ioos:station:WAVCIS:CSI06:1,2010-11-12T04:00:00Z,28.8667,-90.4833,1023.56,11111222 
WAVCIS,ioos:station:WAVCIS:CSI06:1,2010-11-12T05:00:00Z,28.8667,-90.4833,1023.48,11111222 